Rayong, Thailand

12:19 PM +07 on November 18, 2017 (GMT +0700)
U-Taphao International

Weather History for VTBU - November, 2012

Change the Weather History Date:

Friday, November 23, 2012

  Actual Average Record
Temperature  
Mean Temperature 82 °F -  
Max Temperature 89 °F 88 °F 95 °F (2001)
Min Temperature 75 °F 74 °F 68 °F (2001)
Cooling Degree Days 17    
Growing Degree Days 32 (Base 50)    
Moisture  
Dew Point 75 °F    
Average Humidity 81    
Maximum Humidity 94    
Minimum Humidity 62    
Precipitation  
Precipitation 0.00 in - - ()
Sea Level Pressure  
Sea Level Pressure 29.82 in    
Wind  
Wind Speed 1 mph ()    
Max Wind Speed 9 mph    
Max Gust Speed -    
Visibility 5.0 miles    
Events Rain , Thunderstorm    
Averages and records for this station are not official NWS values.
T = Trace of Precipitation, MM = Missing Value Source: Averaged Metar Reports

Daily Weather History Graph

Daily Weather History Graph

Search for Another Location

Airport or City:

Trip Planner

Search our weather history database for the weather conditions in past years. The results will help you decide how hot, cold, wet, or windy it might be!

Date:

Astronomy

Nov. 23, 2012 Rise Set
Actual Time 6:16 AM +07 5:45 PM +07
Civil Twilight 5:53 AM +07 6:08 PM +07
Nautical Twilight 5:27 AM +07 6:34 PM +07
Astronomical Twilight 5:01 AM +07 7:00 PM +07
Moon 2:04 PM +07 (11/23) 1:49 AM +07 (11/23)
Length of Visible Light 12h 14m
Length of Day
11h 29m
Waxing Gibbous, 75% of the Moon is Illuminated
Nov 23
Waxing Gibbous
Nov 28
Full
Dec 6
Last Quarter
Dec 13
New
Dec 20
First Quarter

Hourly Weather History & Observations

Time (+07) Temp. Heat Index Dew Point Humidity Pressure Visibility Wind Dir Wind Speed Gust Speed Precip Events Conditions
12:00 AM 77.0 °F - 73.4 °F 89% 29.83 in 5.0 mi Calm Calm - N/A   Mostly Cloudy
12:30 AM 77.0 °F - 73.4 °F 89% 29.80 in 5.0 mi Calm Calm - N/A   Scattered Clouds
1:00 AM 77.0 °F - 73.4 °F 89% 29.83 in 5.0 mi Calm Calm - N/A   Scattered Clouds
1:30 AM 77.0 °F - 73.4 °F 89% 29.80 in 5.0 mi Calm Calm - N/A   Scattered Clouds
2:00 AM 77.0 °F - 73.4 °F 89% 29.80 in 5.0 mi Calm Calm - N/A   Scattered Clouds
2:30 AM 77.0 °F - 73.4 °F 89% 29.80 in 5.0 mi Calm Calm - N/A   Scattered Clouds
3:00 AM 77.0 °F - 73.4 °F 89% 29.80 in 4.3 mi Calm Calm - N/A   Scattered Clouds
3:30 AM 77.0 °F - 73.4 °F 89% 29.77 in 4.3 mi Calm Calm - N/A   Scattered Clouds
5:00 AM 77.0 °F - 73.4 °F 89% 29.80 in 4.3 mi Calm Calm - N/A   Mostly Cloudy
5:30 AM 75.2 °F - 73.4 °F 94% 29.80 in 4.3 mi Calm Calm - N/A   Scattered Clouds
6:00 AM 77.0 °F - 73.4 °F 89% 29.80 in 4.3 mi Calm Calm - N/A   Mostly Cloudy
6:30 AM 77.0 °F - 73.4 °F 89% 29.83 in 5.0 mi NE 2.3 mph - N/A   Mostly Cloudy
7:00 AM 77.0 °F - 73.4 °F 89% 29.83 in 5.0 mi North 2.3 mph - N/A   Mostly Cloudy
7:30 AM 78.8 °F - 75.2 °F 89% 29.86 in 5.6 mi Calm Calm - N/A   Mostly Cloudy
8:00 AM 80.6 °F 86.2 °F 75.2 °F 84% 29.86 in 5.6 mi Calm Calm - N/A   Mostly Cloudy
8:30 AM 82.4 °F 89.5 °F 75.2 °F 79% 29.86 in 5.6 mi North 3.5 mph - N/A   Mostly Cloudy
9:00 AM 84.2 °F 92.3 °F 75.2 °F 74% 29.86 in 5.6 mi Calm Calm - N/A   Mostly Cloudy
9:30 AM 86.0 °F 95.1 °F 75.2 °F 70% 29.89 in 6.2 mi NNW 4.6 mph - N/A   Mostly Cloudy
10:00 AM 86.0 °F 95.1 °F 75.2 °F 70% 29.89 in 6.2 mi West 3.5 mph - N/A   Mostly Cloudy
10:30 AM 87.8 °F 97.6 °F 75.2 °F 66% 29.89 in 6.2 mi West 4.6 mph - N/A   Mostly Cloudy
11:00 AM 89.6 °F 99.8 °F 75.2 °F 62% 29.86 in 6.2 mi WNW 3.5 mph - N/A   Mostly Cloudy
11:30 AM 87.8 °F 99.7 °F 77.0 °F 70% 29.86 in 6.2 mi WNW 3.5 mph - N/A   Mostly Cloudy
12:00 PM 89.6 °F 99.8 °F 75.2 °F 62% 29.83 in 6.2 mi West 4.6 mph - N/A   Mostly Cloudy
12:30 PM 87.8 °F 97.6 °F 75.2 °F 66% 29.83 in 6.2 mi West 9.2 mph - N/A   Mostly Cloudy
1:00 PM 86.0 °F 96.9 °F 77.0 °F 74% 29.80 in 4.3 mi WNW 4.6 mph - N/A Rain Light Rain Showers
1:30 PM 80.6 °F 86.2 °F 75.2 °F 84% 29.80 in 1.2 mi WNW 9.2 mph - N/A Rain Rain Showers
2:00 PM 77.0 °F - 71.6 °F 83% 29.77 in 1.2 mi NW 9.2 mph - N/A Rain Rain
2:30 PM 78.8 °F - 73.4 °F 83% 29.77 in 3.7 mi North 4.6 mph - N/A   Mostly Cloudy
3:00 PM 82.4 °F 89.5 °F 75.2 °F 79% 29.74 in 4.3 mi North 5.8 mph - N/A   Mostly Cloudy
3:30 PM 86.0 °F 95.1 °F 75.2 °F 70% 29.74 in 3.7 mi Calm Calm - N/A   Mostly Cloudy
4:00 PM 86.0 °F 95.1 °F 75.2 °F 70% 29.74 in 5.0 mi West 4.6 mph - N/A   Mostly Cloudy
4:30 PM 84.2 °F 92.3 °F 75.2 °F 74% 29.74 in 5.0 mi SW 4.6 mph - N/A   Mostly Cloudy
5:00 PM 84.2 °F 92.3 °F 75.2 °F 74% 29.74 in 5.6 mi WSW 4.6 mph - N/A Thunderstorm Thunderstorm
5:30 PM 84.2 °F 92.3 °F 75.2 °F 74% 29.77 in 5.6 mi Calm Calm - N/A Thunderstorm Thunderstorm
6:00 PM 82.4 °F 90.9 °F 77.0 °F 84% 29.77 in 5.6 mi Calm Calm - N/A   Mostly Cloudy
6:30 PM 82.4 °F 89.5 °F 75.2 °F 79% 29.80 in 5.6 mi Calm Calm - N/A   Mostly Cloudy
7:00 PM 80.6 °F 86.2 °F 75.2 °F 84% 29.80 in 5.6 mi Calm Calm - N/A   Mostly Cloudy
7:30 PM 80.6 °F 87.1 °F 77.0 °F 89% 29.83 in 5.6 mi Calm Calm - N/A   Mostly Cloudy
8:00 PM 80.6 °F 86.2 °F 75.2 °F 84% 29.83 in 5.6 mi Calm Calm - N/A   Mostly Cloudy
8:30 PM 80.6 °F 87.1 °F 77.0 °F 89% 29.83 in 5.6 mi Calm Calm - N/A   Mostly Cloudy
9:00 PM 80.6 °F 87.1 °F 77.0 °F 89% 29.86 in 5.6 mi Calm Calm - N/A   Mostly Cloudy
9:30 PM 80.6 °F 87.1 °F 77.0 °F 89% 29.86 in 5.0 mi Calm Calm - N/A   Mostly Cloudy
10:00 PM 80.6 °F 86.2 °F 75.2 °F 84% 29.86 in 5.0 mi Calm Calm - N/A   Mostly Cloudy
10:30 PM 80.6 °F 86.2 °F 75.2 °F 84% 29.86 in 5.0 mi Calm Calm - N/A   Mostly Cloudy
11:00 PM 78.8 °F - 75.2 °F 89% 29.86 in 5.0 mi Calm Calm - N/A   Mostly Cloudy
11:30 PM 80.6 °F 86.2 °F 75.2 °F 84% 29.86 in 5.0 mi Calm Calm - N/A   Mostly Cloudy